TimeMDT,TemperatureF,Dew PointF,Humidity,Sea Level PressureIn,VisibilityMPH,Wind Direction,Wind SpeedMPH,Gust SpeedMPH,PrecipitationIn,Events,Conditions,WindDirDegrees,DateUTC
12:53 AM,39.9,34.0,79,29.75,10.0,West,8.1,-,N/A,,Scattered Clouds,270,2013-05-19 06:53:00
1:53 AM,37.9,32.0,79,29.75,-9999.0,WSW,4.6,-,N/A,,Clear,250,2013-05-19 07:53:00
2:53 AM,35.1,30.9,85,29.79,10.0,Calm,Calm,-,N/A,,Overcast,0,2013-05-19 08:53:00
4:53 AM,33.1,30.0,89,29.79,-9999.0,WSW,8.1,-,N/A,,Scattered Clouds,250,2013-05-19 10:53:00
5:53 AM,35.1,30.9,85,29.83,10.0,ENE,4.6,-,N/A,,Overcast,70,2013-05-19 11:53:00
6:53 AM,37.9,34.0,86,29.79,-9999.0,ENE,8.1,-,N/A,,Overcast,60,2013-05-19 12:53:00
7:53 AM,42.1,34.0,73,29.79,-9999.0,East,3.5,-,N/A,,Clear,90,2013-05-19 13:53:00
8:53 AM,46.9,33.1,59,29.76,10.0,Variable,3.5,-,N/A,,Clear,0,2013-05-19 14:53:00
9:53 AM,51.1,32.0,48,29.72,10.0,WSW,23.0,-,N/A,,Mostly Cloudy,250,2013-05-19 15:53:00
10:53 AM,50.0,30.0,46,29.72,10.0,West,12.7,25.3,N/A,,Overcast,260,2013-05-19 16:53:00
11:16 AM,50.0,30.2,47,29.90,10.0,North,-9999.0,-,N/A,,Overcast,0,2013-05-19 17:16:00
11:53 AM,46.0,33.1,61,29.76,10.0,NNW,16.1,19.6,0.01,Rain,Light Rain,330,2013-05-19 17:53:00
12:03 PM,46.4,35.6,66,29.90,10.0,NW,17.3,-,0.00,Rain,Light Rain,320,2013-05-19 18:03:00
2:53 PM,52.0,32.0,47,29.73,10.0,NW,28.8,38.0,N/A,,Mostly Cloudy,320,2013-05-19 20:53:00
3:53 PM,51.1,34.0,52,29.76,10.0,NW,24.2,31.1,N/A,,Partly Cloudy,320,2013-05-19 21:53:00
4:53 PM,50.0,32.0,50,29.77,10.0,NW,19.6,-,N/A,,Partly Cloudy,310,2013-05-19 22:53:00
5:53 PM,51.1,32.0,48,29.76,10.0,NW,23.0,32.2,N/A,,Scattered Clouds,310,2013-05-19 23:53:00
6:53 PM,48.9,32.0,52,29.76,10.0,NW,24.2,32.2,N/A,,Clear,320,2013-05-20 00:53:00
7:53 PM,46.0,35.1,66,29.78,10.0,NNW,17.3,24.2,N/A,,Clear,330,2013-05-20 01:53:00
8:53 PM,43.0,35.1,74,29.78,10.0,NW,10.4,-,N/A,,Partly Cloudy,320,2013-05-20 02:53:00
9:53 PM,43.0,37.0,80,29.78,10.0,NW,11.5,-,N/A,,Mostly Cloudy,310,2013-05-20 03:53:00
10:43 PM,42.8,39.2,87,29.95,10.0,NNW,10.4,-,0.01,Rain,Light Rain,330,2013-05-20 04:43:00
10:53 PM,42.1,39.9,92,29.78,10.0,NNW,11.5,-,0.01,Rain,Light Rain,330,2013-05-20 04:53:00
11:21 PM,42.8,39.2,87,29.95,10.0,NW,8.1,-,0.00,Rain,Light Rain,310,2013-05-20 05:21:00
11:32 PM,41.0,39.2,93,29.95,10.0,NW,11.5,-,0.01,Rain,Light Rain,310,2013-05-20 05:32:00
11:41 PM,41.0,39.2,93,29.95,10.0,NW,10.4,-,0.01,Rain,Light Rain,310,2013-05-20 05:41:00
11:53 PM,41.0,39.0,93,29.80,10.0,NW,13.8,-,0.01,Rain,Light Rain,320,2013-05-20 05:53:00